S-NET B (43187 NORAD) Tracking and Keplerian Element Data

This shows tracking and keplerian element data for the satellite.

Feedback or suggestion? Click here.




ElementValue
Catalog43187
NameS-NET B
Epoch Orbit38336
Epoch Day34.66582638
Epoch Year2025
RAAN298.9282
Inclination97.5745
Eccentricity0.0008653
Argument of Perigee298.5592
Mean Anonmoly61.4766
Mean Motion15.09576162
Decay Rate9.639E-05
L11 43187U 18014H 25034.66582638 .00009639 00000+0 60331-3 0 9997
L22 43187 97.5745 298.9282 0008653 298.5592 61.4766 15.09576162383369



Live tracking and technical data element details for S-NET B (NORAD 43187). S-NET B can be tracked NOW for your location showing map with azimuth and elevation plus other details from your city location.







IsCatalogInMostPopularTable: catalog: 43187, numindb: 725
Update: records affected: 1



GetName: 43187 S-NET B

Hit Count: updated at: Fri, 18 Jul 2025 16:16:26 GMT